PDT,Max TemperatureF,Mean TemperatureF,Min TemperatureF,Max Dew PointF,MeanDew PointF,Min DewpointF,Max Humidity, Mean Humidity, Min Humidity, Max Sea Level PressureIn, Mean Sea Level PressureIn, Min Sea Level PressureIn, Max VisibilityMiles, Mean VisibilityMiles, Min VisibilityMiles, Max Wind SpeedMPH, Mean Wind SpeedMPH, Max Gust SpeedMPH,PrecipitationIn, CloudCover, Events, WindDirDegrees
2012-3-1,57,50,42,48,42,37,89,76,62,30.31,30.26,30.22,10,10,8,16,6,22,0.01,4,Rain,258
2012-3-2,64,52,40,41,33,25,89,56,22,30.39,30.34,30.29,10,10,10,13,3,20,0.00,0,,304
2012-3-3,71,55,39,43,36,33,73,51,29,30.38,30.32,30.25,10,10,10,8,2,10,0.00,0,,334
2012-3-4,73,58,43,48,43,38,83,59,35,30.27,30.17,30.07,10,10,10,10,2,12,0.00,0,,341
2012-3-5,64,55,46,49,44,41,86,67,48,30.13,30.08,30.04,10,10,10,21,6,24,0.00,1,,350
2012-3-6,57,52,46,45,36,26,86,59,32,30.07,30.02,29.99,10,10,4,22,12,30,0.01,3,Rain,301
2012-3-7,64,54,43,37,23,14,50,33,16,30.21,30.16,30.09,10,10,10,17,6,22,0.00,0,,338
2012-3-8,70,55,39,43,31,17,71,43,15,30.37,30.30,30.23,10,10,10,10,2,,0.00,0,,350
2012-3-9,71,57,42,44,38,30,77,50,23,30.37,30.27,30.18,10,10,10,13,4,15,0.00,0,,342
2012-3-10,61,52,42,48,42,37,86,72,57,30.18,30.10,30.02,10,10,10,16,6,25,0.00,3,,325
2012-3-11,63,55,46,45,41,38,80,66,51,30.10,30.07,30.04,10,10,10,20,5,22,0.00,4,,286
2012-3-12,63,52,40,45,39,36,86,61,36,30.07,30.03,29.97,10,10,10,18,7,24,0.00,3,,158
2012-3-13,58,56,53,49,48,46,83,78,72,30.03,30.00,29.94,10,10,10,16,10,24,0.02,8,Rain,141
2012-3-14,62,59,56,53,51,49,83,78,72,30.15,30.08,30.01,10,10,10,17,11,22,0.03,8,Rain,141
2012-3-15,66,62,58,56,53,50,80,72,63,30.17,30.12,30.08,10,10,7,14,7,18,T,7,Rain,164
2012-3-16,62,56,49,56,51,48,100,84,67,30.08,29.93,29.76,10,9,3,20,8,26,0.48,8,Rain,154
2012-3-17,52,47,42,49,41,35,100,77,54,29.76,29.63,29.56,10,10,10,18,8,25,0.01,5,,288
2012-3-18,54,49,44,38,35,31,76,60,44,29.98,29.83,29.71,10,10,10,24,10,33,0.02,4,Rain,280
2012-3-19,59,49,39,36,31,19,79,51,23,30.12,30.04,29.98,10,10,10,9,3,12,0.00,2,,346
2012-3-20,66,59,51,49,42,35,83,63,42,30.22,30.17,30.12,10,10,10,15,4,17,0.00,5,,333
2012-3-21,72,60,47,53,49,45,93,70,47,30.20,30.09,30.01,10,10,10,15,5,20,0.00,1,,1
2012-3-22,60,53,46,52,43,31,96,67,38,30.06,30.01,29.97,10,10,10,17,7,22,T,5,,314
2012-3-23,66,53,40,38,33,25,79,50,20,30.12,30.03,29.91,10,10,10,17,6,18,0.00,0,,152
2012-3-24,54,50,45,48,45,30,100,71,41,29.94,29.89,29.84,10,7,2,17,7,26,0.63,7,Rain,335
2012-3-25,59,52,44,50,44,41,100,79,57,29.94,29.85,29.80,10,9,5,17,5,22,0.27,5,Rain,338
2012-3-26,60,51,41,42,38,35,89,64,39,30.12,30.06,29.96,10,10,10,17,7,23,0.00,2,,161
2012-3-27,60,56,52,54,46,38,100,76,51,30.07,29.98,29.91,10,9,4,22,12,35,0.23,7,Rain,143
2012-3-28,68,60,52,55,50,41,93,68,43,30.15,30.06,29.98,10,10,8,13,5,17,0.01,4,Rain,112
2012-3-29,68,58,47,51,48,45,89,69,48,30.16,30.12,30.09,10,10,9,21,5,23,0.00,2,,9
2012-3-30,69,60,51,53,50,47,89,69,48,30.13,30.03,29.94,10,10,10,16,7,22,0.00,4,,181
2012-3-31,61,55,48,52,47,38,100,73,46,30.08,29.90,29.75,10,9,2,23,10,35,0.25,6,Rain,182